STARLINK-35059

Last updated on Tue Sep 16 2025 00:02:08 GMT+0000 (Coordinated Universal Time)

1 65454U 25194W 25257.94998934 .00367319 00000+0 16140-2 0 9993 2 65454 97.5984 109.2913 0001680 59.5231 300.6204 15.83637137 3083
UTC large
Height (km)
Speed (km/s)
/
Latitude / Longitude
Inclination (degrees)
Orbital Period (minutes)
Azimuth
Elevation
Range (km)
Doppler Factor

Next 0 passes for location: London (51.5072 / 0.1276)

Sorry there are no passes over London.